Home > Weather > Gevelsberg > Past weeks

Flag for Germany Past Weather in Gevelsberg, North Rhine-Westphalia, Germany — Yesterday and Last 2 Weeks

Now
66 °F

Sunny.


Feels Like: 66 °F
Forecast: 60 / 67 °F
Wind: 7 mph from Southwest

Location: Dortmund / Wickede

Current Time: Jul 28, 2016 at 1:06:19 AM

Latest Report: Jul 27, 2016 at 9:50 PM


Visibility: 10 mi

Pressure: 30.01 "Hg

Humidity: 64%

Dew Point: 54 °F

Location of GevelsbergLocation

Past Weather in Gevelsberg — Graph

°F

Gevelsberg Temperature Yesterday

Maximum temperature yesterday: 72 °F (at 2:50 PM)
Minimum temperature yesterday: 57 °F (at 5:50 AM)
Average temperature yesterday: 67 °F

High & Low Weather Summary for the Past Weeks

 TemperatureHumidityPressure
High91 °F (Jul 20, 3:20 PM)88% (Jul 13, 5:20 AM)30.30 "Hg (Jul 13, 5:20 AM)
Low48 °F (Jul 14, 5:20 AM)20% (Jul 20, 5:20 PM)29.86 "Hg (Jul 20, 6:20 PM)
Average69 °F60%30.09 "Hg
* Reported Jul 12 9:20 PM — Jul 27 9:50 PM, Gevelsberg, Weather by CustomWeather, © 2016

Note: Actual official high and low records may vary slightly from our data, if they occured in-between our weather recording intervals... More about our weather records

Advertising

Gevelsberg Weather History for the Previous 24 Hours

Scroll right to see more
 ConditionsComfort  
Time TempWeatherWind HumidityBarometerVisibility
9:50 PM
Wed, Jul 27
66 °FSunny.7 mph64%30.01 "Hg10 mi
9:20 PM68 °FSunny.8 mph56%30.01 "Hg10 mi
8:50 PM68 °FSunny.8 mph56%30.01 "Hg10 mi
8:20 PM68 °FPassing clouds.9 mph56%30.01 "HgN/A
7:50 PM70 °FScattered clouds.9 mph53%30.01 "HgN/A
7:20 PM70 °FSunny.13 mph53%30.01 "Hg10 mi
6:50 PM70 °FPartly sunny.10 mph53%30.01 "HgN/A
6:20 PM72 °FPartly sunny.13 mph50%30.01 "HgN/A
5:50 PM70 °FPartly sunny.10 mph50%30.01 "HgN/A
5:20 PM72 °FScattered clouds.13 mph50%30.01 "HgN/A
4:50 PM72 °FBroken clouds.10 mph50%30.01 "HgN/A
4:20 PM70 °FSunny.10 mph50%30.01 "Hg10 mi
3:50 PM72 °FPassing clouds.10 mph47%30.01 "HgN/A
3:20 PM72 °FPassing clouds.13 mph41%30.01 "HgN/A
2:50 PM72 °FScattered clouds.14 mph50%30.01 "HgN/A
2:20 PM70 °FScattered clouds.13 mph57%30.01 "HgN/A
1:50 PM70 °FScattered clouds.15 mph53%30.04 "HgN/A
1:20 PM68 °FPassing clouds.14 mph60%30.04 "HgN/A
12:50 PM68 °FScattered clouds.12 mph60%30.04 "HgN/A
12:20 PM70 °FScattered clouds.12 mph57%30.04 "HgN/A
11:50 AM68 °FScattered clouds.9 mph64%30.04 "HgN/A
11:20 AM66 °FScattered clouds.10 mph64%30.04 "HgN/A
10:50 AM68 °FScattered clouds.9 mph69%30.04 "HgN/A
10:20 AM64 °FPassing clouds.10 mph73%30.07 "Hg6 mi
9:50 AM66 °FPassing clouds.10 mph68%30.04 "HgN/A
9:20 AM66 °FScattered clouds.10 mph68%30.04 "HgN/A
8:50 AM64 °FScattered clouds.9 mph73%30.04 "HgN/A
8:20 AM63 °FSunny.7 mph77%30.04 "Hg10 mi
7:50 AM61 °FSunny.9 mph77%30.04 "Hg10 mi
7:20 AM59 °FSunny.9 mph82%30.04 "Hg10 mi
6:50 AM59 °FSunny.8 mph82%30.04 "Hg10 mi
6:20 AM57 °FClear.8 mph88%30.04 "Hg10 mi
5:50 AM57 °FClear.6 mph82%30.04 "Hg10 mi
5:20 AM59 °FClear.5 mph82%30.07 "Hg10 mi
Weather by CustomWeather, © 2016

See weather overviewHow to use our weather pages